Location: Dal�� Lhota
(48.7500°N, 14.0167°E)
Time: 02:38:35
(UTC+00:00)

Terra - Pass Details

Date: 24 September 2020
Orbit: 701 x 703 km, 98.2° (Epoch: 29 October)

Event Time Altitude Azimuth Distance (km) Brightness Sun altitude
Exits shadow 19:42:35 17° 31° (NNE) 1,729 3.8 -26.8°
Drops below altitude 10° 19:44:23 10° 12° (NNE) 2,183 4.6 -27.0°
Sets 19:47:05 0° 357° (N) 3,106 5.6 -27.4°
